Simultaneous Nadir Overpasses (SNOs) Predictions

Prediction of SNOs between FY3D and AQUA Satellite Orbit:

Table of predicted SNOs for the next 14.0 days since TLE Epoch: 6/14/2025
Index Date (FY3D) Time (FY3D) Lat,Lon (FY3D) SZA (FY3D ) Date (AQUA) Time (AQUA) Lat,Lon (AQUA) SZA (AQUA ) Distance(km) Time Diff (sec)
1 06/16/2025 12:37:35 80.09, -26.85 57.18 06/16/2025 12:38:48 80.16, -26.47 57.20 10.80 73
2 06/16/2025 13:27:57 -79.43, 147.20 123.79 06/16/2025 13:27:45 -79.43, 147.15 123.78 1.34 12
3 06/18/2025 22:58:42 -79.50, 3.97 123.75 06/18/2025 22:58:47 -79.50, 3.98 123.75 0.38 5
4 06/21/2025 08:29:24 -79.51,-138.74 123.75 06/21/2025 08:29:46 -79.52,-138.82 123.74 1.85 22
5 06/21/2025 09:20:03 79.34, 30.07 56.03 06/21/2025 09:18:59 79.33, 30.18 56.03 2.49 64
6 06/23/2025 18:00:08 -79.55, 78.25 123.66 06/23/2025 18:00:46 -79.56, 78.19 123.66 1.31 38
7 06/23/2025 18:50:47 79.39,-112.95 56.12 06/23/2025 18:49:59 79.38,-112.82 56.11 2.80 48
8 06/26/2025 03:30:53 -79.63, -65.08 123.49 06/26/2025 03:31:46 -79.62, -64.98 123.51 1.92 53



Historial Predications of SNOs between FY3D and AQUA
